Showing default

AEHF 4 (USA 288), 43651

Orbit data source: Space-Track

AEHF 4 (USA 288), 43651 is a payload satellite owned by USAF MCSW (US) in GEO that was launched on Wed, 17 Oct 2018 UTC via an ATLAS V 551 launch vehicle from the Air Force Eastern Test Range (AFETR). Payload-class satellites include a variety of spacecraft equipped with specific instruments for various scientific and technological missions. These include communications satellites like Starlink; space stations such as the ISS; scientific satellites like the Hubble; Earth observation satellites from companies like Planet Labs, Umbra, and HawkEye 360; GPS; miniature CubeSats for education and research; and military/defense satellites.

Loading next visibility...
Identifier
43651, 2018-079A
Orbit
GEO
Country
Flag of USUS
Related business
Manufacturer
LMSS
Mission
Operational Defense Communications
Bus & Motor
A2100M, BT-4/AJ-EP?
Mass
6,200 kg wet, ~4,000 kg dry
Launch date (UTC)
2018-10-17 (7 years ago)
Launch vehicle
ATLAS V 551
Launch site
Air Force Eastern Test Range (AFETR)
Object type
Payload
Rocket body
Debris
Shape & HBR
Box + 2 Pan, 13.5 m
Radar Cross Section
35.027 m², Large (>1 m²)

Expand to show TLE details & history
Last TLE update: 9 hours ago

TLE from 9 hours ago
0 AEHF 4 (USA 288)
1 43651U 18079A   25353.25408510 -.00000250  00000-0  00000-0 0  9995
2 43651   1.4466 348.3485 0060884   0.9662 122.7267  1.00275307 26499
Epoch: 2025-12-19T06:05Z
TLE epoch observation values (Epoch: 2025-12-19T06:05:52.952Z)
Latitude
1.21853°
Longitude
-66.9521°
Altitude
35,924.206 km
Speed
3.065 km/s
True Right ascension
07h 30m 27s
True Declination
1° 13' 02"
Sunlit
Object was in daylight at epoch
Visualization orbit readout
Latitude
Unknown
Longitude
Unknown
Altitude
Unknown
Speed
Unknown
Apparent Right ascension
Unknown
Apparent Declination
Unknown
Sunlit
N/A
Visualization observer readout
Local Sidereal Time
13:39:41
Azimuth
Unknown
Elevation
Unknown
Doppler factor
Unknown
Orbital elements
Apogee altitude
36,043.393 km
Perigee altitude
35,529.961 km
Semi-major axis
42,164.814 km
Eccentricity
0.00609
Inclination
1.4466°
RAAN
348.3485°
Arg. of periapsis
0.9662°
True anomaly
123.31121°
Mean anomaly
122.7267°
Eccentric anomaly
123.0192°
Mean motion
0.25068 °/min
Orbital period
1,436.1 mins
BSTAR
0
Loading maneuver chart data...
Computing Atmospheric mass density...

Documentation

Showing up to 5 results
|